• In Hungary
  • List of Countries
  • For 7 days
  • Water Temperature
  • Satellite Maps
  • Weather Map
  • News
  • Weather Widgets
  • user-avatar
    Login

    Hourly Weather Smykow

    Today, 25 November, Saturday

    Time Temperature Precipitation Wind Pressure Humidity
    00:00 +5°C° 0 mm 3 mps 734 mmHg 81%
    01:00 +5°C° 0 mm 3 mps 734 mmHg 81%
    02:00 +5°C° 0 mm 3 mps 734 mmHg 81%
    03:00 +5°C° 0 mm 3 mps 734 mmHg 82%
    04:00 +6°C° 0 mm 2 mps 734 mmHg 82%
    05:00 +5°C° 0 mm 2 mps 734 mmHg 83%
    06:00 +5°C° 0 mm 2 mps 733 mmHg 85%
    07:00 +5°C° 0 mm 2 mps 733 mmHg 86%
    08:00 +4°C° 0 mm 3 mps 733 mmHg 82%
    09:00 +5°C° 0 mm 3 mps 732 mmHg 78%
    10:00 +6°C° 0 mm 4 mps 732 mmHg 74%
    11:00 +7°C° 0 mm 4 mps 731 mmHg 72%
    12:00 +8°C° 0 mm 4 mps 731 mmHg 69%
    13:00 +9°C° 0 mm 5 mps 730 mmHg 67%
    14:00 +8°C° 0 mm 5 mps 730 mmHg 69%
    15:00 +8°C° 0 mm 5 mps 730 mmHg 71%
    16:00 +7°C° 0 mm 4 mps 729 mmHg 73%
    17:00 +7°C° 0.1 mm 4 mps 729 mmHg 75%
    18:00 +7°C° 0.1 mm 4 mps 729 mmHg 77%
    19:00 +6°C° 0.1 mm 4 mps 729 mmHg 78%
    20:00 +6°C° 0.5 mm 4 mps 729 mmHg 81%
    21:00 +6°C° 0.5 mm 4 mps 729 mmHg 83%
    22:00 +6°C° 0.5 mm 4 mps 729 mmHg 86%
    23:00 +6°C° 0.1 mm 4 mps 730 mmHg 86%

    Tomorrow, 26 November, Sunday

    Time Temperature Precipitation Wind Pressure Humidity
    00:00 +6°C° 0.1 mm 4 mps 730 mmHg 86%
    01:00 +5°C° 0.1 mm 4 mps 731 mmHg 87%
    02:00 +5°C° 0 mm 4 mps 731 mmHg 85%
    03:00 +4°C° 0 mm 4 mps 732 mmHg 84%
    04:00 +4°C° 0 mm 4 mps 732 mmHg 82%
    05:00 +3°C° 0 mm 4 mps 733 mmHg 82%
    06:00 +3°C° 0 mm 4 mps 733 mmHg 83%
    07:00 +3°C° 0 mm 3 mps 734 mmHg 83%
    08:00 +3°C° 0.2 mm 3 mps 735 mmHg 83%
    09:00 +3°C° 0.2 mm 3 mps 735 mmHg 83%
    10:00 +3°C° 0.2 mm 3 mps 736 mmHg 83%
    11:00 +3°C° 0.3 mm 4 mps 736 mmHg 81%
    12:00 +3°C° 0.3 mm 4 mps 736 mmHg 80%
    13:00 +3°C° 0.3 mm 4 mps 736 mmHg 79%
    14:00 +3°C° 0.1 mm 3 mps 737 mmHg 80%
    15:00 +3°C° 0.1 mm 3 mps 737 mmHg 81%
    16:00 +2°C° 0.1 mm 3 mps 737 mmHg 81%
    17:00 +2°C° 0 mm 3 mps 737 mmHg 83%
    18:00 +2°C° 0 mm 3 mps 738 mmHg 84%
    19:00 +1°C° 0 mm 3 mps 738 mmHg 86%
    20:00 +1°C° 0 mm 3 mps 738 mmHg 85%
    21:00 +1°C° 0 mm 3 mps 739 mmHg 85%
    22:00 0°C° 0 mm 3 mps 739 mmHg 85%
    23:00 0°C° 0 mm 3 mps 739 mmHg 86%

    Day after tomorrow, 27 November, Monday

    Time Temperature Precipitation Wind Pressure Humidity
    00:00 -1°C° 0 mm 3 mps 739 mmHg 88%
    01:00 -1°C° 0 mm 3 mps 739 mmHg 89%
    02:00 -1°C° 0 mm 3 mps 739 mmHg 90%
    03:00 -2°C° 0 mm 3 mps 739 mmHg 90%
    04:00 -2°C° 0 mm 3 mps 739 mmHg 91%
    05:00 -2°C° 0 mm 3 mps 739 mmHg 90%
    06:00 -2°C° 0 mm 3 mps 739 mmHg 90%
    07:00 -2°C° 0 mm 3 mps 740 mmHg 89%
    08:00 -1°C° 0 mm 3 mps 740 mmHg 86%
    09:00 -1°C° 0 mm 4 mps 740 mmHg 83%
    10:00 0°C° 0 mm 4 mps 740 mmHg 79%
    11:00 0°C° 0 mm 4 mps 740 mmHg 78%
    12:00 0°C° 0 mm 4 mps 740 mmHg 77%
    13:00 0°C° 0 mm 4 mps 740 mmHg 75%
    14:00 0°C° 0 mm 4 mps 739 mmHg 77%
    15:00 +1°C° 0 mm 3 mps 739 mmHg 78%
    16:00 0°C° 0 mm 3 mps 739 mmHg 80%
    17:00 +1°C° 0 mm 2 mps 739 mmHg 82%
    18:00 +1°C° 0 mm 2 mps 739 mmHg 83%
    19:00 -1°C° 0 mm 2 mps 739 mmHg 85%
    20:00 -1°C° 0 mm 2 mps 739 mmHg 85%
    21:00 -1°C° 0 mm 2 mps 739 mmHg 85%
    22:00 -1°C° 0 mm 2 mps 739 mmHg 85%
    23:00 -1°C° 0 mm 2 mps 739 mmHg 85%

    28 November, Tuesday

    Time Temperature Precipitation Wind Pressure Humidity
    00:00 -1°C° 0 mm 2 mps 738 mmHg 85%
    01:00 -2°C° 0 mm 2 mps 738 mmHg 85%
    02:00 -2°C° 0 mm 2 mps 738 mmHg 85%
    03:00 -2°C° 0 mm 3 mps 737 mmHg 85%
    04:00 -2°C° 0 mm 3 mps 737 mmHg 85%
    05:00 -2°C° 0 mm 3 mps 737 mmHg 84%
    06:00 -2°C° 0 mm 3 mps 737 mmHg 83%
    07:00 -3°C° 0 mm 4 mps 736 mmHg 82%
    08:00 -2°C° 0 mm 4 mps 736 mmHg 76%
    09:00 -1°C° 0 mm 5 mps 736 mmHg 71%
    10:00 -1°C° 0 mm 5 mps 736 mmHg 66%
    11:00 0°C° 0 mm 5 mps 735 mmHg 63%
    12:00 0°C° 0 mm 5 mps 735 mmHg 61%
    13:00 +1°C° 0 mm 5 mps 734 mmHg 59%
    14:00 0°C° 0 mm 4 mps 733 mmHg 63%
    15:00 -1°C° 0 mm 4 mps 733 mmHg 68%
    16:00 -2°C° 0 mm 4 mps 733 mmHg 72%
    17:00 -2°C° 0 mm 4 mps 732 mmHg 74%
    18:00 -2°C° 0 mm 4 mps 732 mmHg 77%
    19:00 -2°C° 0 mm 4 mps 732 mmHg 79%
    20:00 -1°C° 0 mm 3 mps 732 mmHg 79%
    21:00 -1°C° 0 mm 3 mps 731 mmHg 79%
    22:00 -1°C° 0 mm 3 mps 731 mmHg 79%
    23:00 -1°C° 0 mm 3 mps 731 mmHg 78%

    29 November, Wednesday

    Time Temperature Precipitation Wind Pressure Humidity
    00:00 -1°C° 0 mm 3 mps 730 mmHg 78%
    01:00 -1°C° 0 mm 3 mps 730 mmHg 77%
    02:00 -1°C° 0 mm 3 mps 730 mmHg 75%
    03:00 -1°C° 0 mm 2 mps 729 mmHg 74%
    04:00 -1°C° 0 mm 2 mps 729 mmHg 72%
    05:00 -1°C° 0 mm 2 mps 729 mmHg 71%
    06:00 -1°C° 0 mm 2 mps 728 mmHg 70%
    07:00 -1°C° 0 mm 2 mps 728 mmHg 69%
    08:00 -1°C° 0 mm 2 mps 728 mmHg 66%
    09:00 +1°C° 0 mm 2 mps 728 mmHg 63%
    10:00 0°C° 0 mm 3 mps 728 mmHg 60%
    11:00 +1°C° 0 mm 3 mps 728 mmHg 58%
    12:00 +2°C° 0 mm 3 mps 727 mmHg 56%
    13:00 +1°C° 0 mm 4 mps 727 mmHg 54%
    14:00 0°C° 0 mm 4 mps 727 mmHg 57%
    15:00 0°C° 0 mm 4 mps 727 mmHg 60%
    16:00 -1°C° 0 mm 4 mps 727 mmHg 63%
    17:00 -1°C° 0 mm 4 mps 727 mmHg 66%
    18:00 -1°C° 0 mm 4 mps 727 mmHg 68%
    19:00 -2°C° 0 mm 4 mps 728 mmHg 71%
    20:00 -2°C° 0 mm 4 mps 728 mmHg 72%
    21:00 -2°C° 0 mm 4 mps 728 mmHg 74%
    22:00 -2°C° 0 mm 4 mps 728 mmHg 75%
    23:00 -1°C° 0 mm 3 mps 728 mmHg 75%

    30 November, Thursday

    Time Temperature Precipitation Wind Pressure Humidity
    00:00 -1°C° 0 mm 3 mps 728 mmHg 76%
    01:00 -1°C° 0 mm 3 mps 728 mmHg 77%
    02:00 -1°C° 0.4 mm 3 mps 728 mmHg 79%
    03:00 -1°C° 0.4 mm 2 mps 727 mmHg 81%
    04:00 -1°C° 0.4 mm 2 mps 727 mmHg 83%
    05:00 -1°C° 0.4 mm 2 mps 727 mmHg 85%
    06:00 -1°C° 0.4 mm 2 mps 727 mmHg 87%
    07:00 0°C° 0.4 mm 3 mps 726 mmHg 89%
    08:00 0°C° 0.5 mm 3 mps 726 mmHg 87%
    09:00 0°C° 0.5 mm 3 mps 726 mmHg 85%
    10:00 +1°C° 0.5 mm 3 mps 725 mmHg 83%
    11:00 +1°C° 0.8 mm 3 mps 725 mmHg 85%
    12:00 +1°C° 0.8 mm 3 mps 724 mmHg 88%
    13:00 +2°C° 0.8 mm 2 mps 724 mmHg 90%
    14:00 +1°C° 0.2 mm 2 mps 724 mmHg 92%
    15:00 0°C° 0.2 mm 3 mps 724 mmHg 93%
    16:00 0°C° 0.2 mm 3 mps 724 mmHg 95%
    17:00 0°C° 0 mm 3 mps 724 mmHg 95%
    18:00 -1°C° 0 mm 3 mps 725 mmHg 94%
    19:00 -2°C° 0 mm 4 mps 725 mmHg 94%
    20:00 -1°C° 0 mm 3 mps 726 mmHg 94%
    21:00 -1°C° 0 mm 3 mps 726 mmHg 94%
    22:00 -2°C° 0 mm 3 mps 726 mmHg 94%
    23:00 -2°C° 0 mm 3 mps 727 mmHg 93%
    Show more